Weather History for Poplar Bluff, MO

Change the Weather History Date:

Wednesday, February 8, 2012

  Actual Average Record
Temperature  
Mean Temperature 40 °F -  
Max Temperature 43 °F 41 °F 72 °F (1932)
Min Temperature 37 °F 22 °F 2 °F (1933)
Degree Days  
Heating Degree Days 25    
Moisture  
Dew Point 32 °F    
Average Humidity 75    
Maximum Humidity 89    
Minimum Humidity 68    
Precipitation  
Precipitation 0.00 in - - ()
Sea Level Pressure  
Sea Level Pressure 30.38 in    
Wind  
Wind Speed 7 mph (North)    
Max Wind Speed 14 mph    
Max Gust Speed 21 mph    
Visibility 10 miles    
Events Rain    
Averages and records for this station are not official NWS values.
T = Trace of Precipitation, MM = Missing Value Source: NWS Daily Summary

Daily Weather History Graph

Daily Weather History Graph

Search for Another Location

Airport:

Trip Planner

Search our weather history database for the weather conditions in past years. The results will help you decide how hot, cold, wet, or windy it might be!

Date:

Astronomy

Feb. 08, 2012 Rise Set
Actual Time 6:57 AM CST 5:33 PM CST
Civil Twilight 6:30 AM CST 6:00 PM CST
Nautical Twilight 6:00 AM CST 6:31 PM CST
Astronomical Twilight 5:29 AM CST 7:01 PM CST
Moon 6:49 PM CST (2/8) 7:03 AM CST (2/8)
Length of Visible Light 11h 30m
Length of Day
10h 36m
Full, 99% of the Moon is Illuminated
Feb 8
Full
Feb 14
Last Quarter
Feb 21
New
Feb 29
First Quarter
Mar 8
Full

Hourly Weather History & Observations

Time (CST) Temp. Windchill Dew Point Humidity Pressure Visibility Wind Dir Wind Speed Gust Speed Precip Events Conditions
12:53 AM 43.0 °F 38.8 °F 37.0 °F 80% 30.31 in 10.0 mi NW 6.9 mph - 0.00 in Rain Light Rain
1:53 AM 42.1 °F 39.2 °F 37.0 °F 82% 30.32 in 10.0 mi NW 4.6 mph - 0.00 in   Overcast
2:53 AM 41.0 °F 39.0 °F 37.0 °F 86% 30.32 in 10.0 mi NNW 3.5 mph - N/A   Mostly Cloudy
3:24 AM 41.0 °F 38.0 °F 37.4 °F 87% 30.31 in 10.0 mi NNW 4.6 mph - N/A   Mostly Cloudy
3:53 AM 41.0 °F 37.1 °F 37.9 °F 89% 30.32 in 10.0 mi NNW 5.8 mph - N/A   Overcast
4:12 AM 41.0 °F 34.7 °F 35.6 °F 81% 30.31 in 9.0 mi North 10.4 mph - N/A   Overcast
4:43 AM 41.0 °F 36.4 °F 35.6 °F 81% 30.32 in 10.0 mi North 6.9 mph - N/A   Overcast
4:53 AM 39.9 °F 32.9 °F 35.1 °F 83% 30.33 in 10.0 mi North 11.5 mph - N/A   Overcast
5:31 AM 39.2 °F 31.2 °F 33.8 °F 81% 30.33 in 10.0 mi NNW 13.8 mph - N/A   Overcast
5:44 AM 39.2 °F 31.2 °F 32.0 °F 75% 30.34 in 10.0 mi NNW 13.8 mph 20.7 mph N/A   Overcast
5:53 AM 37.9 °F 30.0 °F 32.0 °F 79% 30.35 in 10.0 mi North 12.7 mph - N/A   Overcast
6:53 AM 37.9 °F 30.0 °F 30.9 °F 76% 30.38 in 10.0 mi North 12.7 mph - N/A   Overcast
7:53 AM 37.0 °F 29.8 °F 30.0 °F 76% 30.41 in 10.0 mi North 10.4 mph - N/A   Overcast
8:53 AM 37.0 °F 29.8 °F 30.0 °F 76% 30.43 in 10.0 mi North 10.4 mph - N/A   Overcast
9:53 AM 37.9 °F 29.2 °F 30.0 °F 73% 30.41 in 10.0 mi North 15.0 mph - N/A   Overcast
10:53 AM 39.0 °F 32.3 °F 30.0 °F 70% 30.43 in 10.0 mi North 10.4 mph 16.1 mph N/A   Overcast
11:53 AM 39.0 °F 32.8 °F 30.0 °F 70% 30.43 in 10.0 mi NNW 9.2 mph - N/A   Overcast
12:53 PM 39.9 °F 35.8 °F 30.0 °F 68% 30.41 in 10.0 mi NNW 5.8 mph - N/A   Overcast
1:53 PM 39.0 °F 34.0 °F 30.0 °F 70% 30.40 in 10.0 mi North 6.9 mph - N/A   Overcast
2:26 PM 39.2 °F 35.0 °F 30.2 °F 70% 30.38 in 10.0 mi North 5.8 mph - N/A   Overcast
2:53 PM 39.9 °F 35.8 °F 30.0 °F 68% 30.41 in 10.0 mi North 5.8 mph - N/A   Overcast
3:53 PM 39.9 °F 36.7 °F 30.0 °F 68% 30.40 in 10.0 mi NNW 4.6 mph - N/A   Overcast
4:33 PM 39.2 °F 37.0 °F 30.2 °F 70% 30.39 in 10.0 mi NNW 3.5 mph - N/A   Overcast
4:53 PM 39.0 °F 35.7 °F 30.0 °F 70% 30.41 in 10.0 mi NW 4.6 mph - N/A   Overcast
5:34 PM 39.2 °F 35.9 °F 30.2 °F 70% 30.39 in 10.0 mi NW 4.6 mph - N/A   Overcast
5:53 PM 39.0 °F 34.0 °F 30.0 °F 70% 30.40 in 10.0 mi NW 6.9 mph - N/A   Overcast
6:53 PM 39.0 °F 35.7 °F 30.0 °F 70% 30.40 in 10.0 mi North 4.6 mph - N/A   Overcast
7:53 PM 37.9 °F 33.5 °F 30.0 °F 73% 30.40 in 10.0 mi NNE 5.8 mph - N/A   Overcast
8:53 PM 37.9 °F 33.5 °F 30.0 °F 73% 30.42 in 10.0 mi NE 5.8 mph - N/A   Overcast
9:53 PM 37.0 °F 34.5 °F 30.0 °F 76% 30.42 in 10.0 mi NE 3.5 mph - N/A   Overcast
10:53 PM 37.0 °F - 30.0 °F 76% 30.42 in 10.0 mi Calm Calm - N/A   Overcast
11:53 PM 37.0 °F - 30.9 °F 79% 30.42 in 10.0 mi Calm Calm - N/A   Overcast